Location: LDNL
(36.4545°S, 141.6685°E)
Time: 00:41:42
(UTC+11:00)

STRAND 1 - Pass Details

Date: 05 October 2022
Orbit: 766 x 781 km, 98.4° (Epoch: 05 December)

Event Time Altitude Azimuth Distance (km) Brightness Sun altitude
Rises 20:51:13 0° 334° (NNW) 3,247 ? -14.8°
Reaches altitude 10° 20:54:15 10° 315° (NW) 2,327 ? -15.4°
Maximum altitude 20:57:41 18° 273° (W) 1,844 ? -16.0°
Drops below altitude 10° 21:01:09 10° 231° (SW) 2,342 ? -16.7°
Sets 21:04:14 0° 212° (SSW) 3,276 ? -17.3°
